User: anonymous   Login
Location: Unspecified
(0.0000°N, 0.0000°E)
Time: 08:39:44
(UTC+00:00)
Language:

CUTE 1.7 + AOD 2 - Orbit

View from above orbital plane
View from above orbital plane
View from above satellite
View from above satellite

Ground track
Ground track

The orbit data is extracted from the following two-line orbital elements,

1 32785U 08021C   18053.53553699  .00000185  00000-0  25683-4 0  9990
2 32785 097.5528 071.1578 0014439 062.1726 298.0953 14.88064696532050
Epoch (UTC): 22 February 2018 12:51:10
Eccentricity: 0.0014439
inclination: 97.5528°
perigee height: 594 km
apogee height: 614 km
right ascension of ascending node: 71.1578°
argument of perigee: 62.1726°
revolutions per day: 14.88064696
mean anomaly at epoch: 298.0953°
orbit number at epoch: 53205

The dashed part of the orbit path shows where the satellite is in the earth's shadow,  

DLR